星链-31450 (STARLINK-31450 )

导读 | 豆包AI

STARLINK-31450是美国太空探索技术公司(SpaceX)星链星座中的一颗卫星,星链项目旨在构建全球卫星互联网星座,为全球提供高速互联网服务。该卫星于2024年2月23日8时(UTC)由美国发射升空,属于星链卫星网络的扩容部署卫星,进一步完善了星链低轨卫星星座的覆盖密度和服务能力。

基本信息
目录编号:
59006
目录名称:
STARLINK-31450
国际标识:
2024-036J
轨道中心:
EARTH
卫星名称:
星链-31450
卫星全名:
星链-31450 (STARLINK-31450 )
卫星状态:
在轨 (已飞行751 天)
发射日期:
2024-02-23 UTC
国别 :
美国 (US)
星等 :
--
轨道信息
数据来源 国际轨道数据
星历时间: 2026-03-15T22:57:37+0800
8小时前
查看轨道信息
半长轴: 6853.385km
偏心率: 0.0001129
轨道倾角: 53.161°
近地点辐角 90.443°
升交点赤经 50.427°
平近点角 269.670°
近地点: 474.474km
远地点: 476.022km
周期: 94.106分钟
每日圈数: 15.301893
详细信息
固有亮度:
5
最大亮度:
0.3
卫星平台:
Starlink v2.0 mini
覆盖范围:
全球
运营商:
太空探索技术公司
运营商所在国:
美国
制造商(研发单位):
太空探索技术公司
制造商所在国:
美国
使用方式:
暂无
卫星简介
星链(Starlink)计划是由太空探索技术公司(SpaceX)提出的一个巨型低轨卫星互联网星座项目,计划在2019年至2024年间在太空搭建由约1.2万颗卫星组成的“星链”网络,其中1584颗将部署在地球上空550千米处的近地轨道,并从2020年开始工作。该卫星仍在工作。
2D轨道图
3D轨道图
轨道高度分析图
轨道倾角分析图
轨道综合分析图
查看轨道综合分析图